Regional Weather Roundup
Issued by NWS State College, PA

Home | Current Version | Previous Version | Text Only | Print | Product List | Glossary On
Versions: 1 2 3 4 5 6 7 8 9 10 11 12 13 14 15 16 17 18 19 20 21 22 23 24 25 26 27 28 29 30 31 32 33 34 35 36 37 38 39 40 41 42 43 44 45 46 47 48 49 50
000
ASUS41 KCTP 302210
RWRCTP

REGIONAL WEATHER ROUNDUP
NATIONAL WEATHER SERVICE STATE COLLEGE PA
600 PM EDT TUE JUN 30 2015

Note: "fair" indicates few or no clouds below 12,000 feet with no
significant weather and/or obstructions to visibility.

* = STATION THAT DOES NOT REPORT PRECIPITATION /E.G. RAIN...SNOW...ETC/
    THUNDER OR FOG.

PAZ002>004-007>009-013>016-020>023-029>032-302300-
WESTERN PENNSYLVANIA

CITY           SKY/WX    TMP DP  RH WIND       PRES   REMARKS
ERIE           SUNNY     68  58  70 NW6       29.77S
MEADVILLE      HVY RAIN  65  60  84 S7        29.80R VSB 3/4
FRANKLIN*      MOSUNNY   64  61  88 S3        29.81F
NEW CASTLE     TSTM      67  66  96 CALM      29.81R
BEAVER COUNTY  TSTM      64  61  88 SW16G31   29.81R
BUTLER*        PTSUNNY   72  63  73 SW7       29.81R
PITTSBURGH INT TSTM      67  59  75 W21G33    29.83R
PITTSBURGH     PTSUNNY   69  62  78 SW6       29.80R
INDIANA*       CLOUDY    70  66  88 NE6       29.85R
LATROBE        PTSUNNY   77  64  65 SW14      29.81S
WASHINGTON CO* NOT AVBL
$$

PAZ004>006-010>012-017>019-024>028-033>037-041-042-045-046-049>053-302300-
CENTRAL PENNSYLVANIA

CITY           SKY/WX    TMP DP  RH WIND       PRES   REMARKS
BRADFORD       MOSUNNY   71  61  70 W6        29.82S
DUBOIS         MOSUNNY   71  63  75 SW6       29.82S
CLEARFIELD     LGT RAIN  65  62  90 W3        29.83R
JOHNSTOWN      MOSUNNY   73  58  59 SW12      29.85R
ALTOONA        PTSUNNY   77  62  59 SW7       29.81F
STATE COLLEGE  PTSUNNY   72  66  83 S7        29.81F
WILLIAMSPORT   MOSUNNY   79  65  62 SE7       29.77F
SELINSGROVE    PTSUNNY   76  67  73 CALM      29.79F
FT INDIANTOWN  MOSUNNY   78  70  75 SE12      29.79S
CAPITAL CITY   SUNNY     81  65  58 SW3       29.78S
HARRISBURG     PTSUNNY   79  68  69 SE7       29.77F
YORK           SUNNY     81  66  60 CALM      29.78F
$$

PAZ038>040-043-044-047-048-054-055-060>062-067>071-302300-
EASTERN PENNSYLVANIA

CITY           SKY/WX    TMP DP  RH WIND       PRES   REMARKS
SCRANTON       PTSUNNY   74  65  73 E7        29.83F
MOUNT POCONO   HVY RAIN  63  60  90 S5        29.90S VSB 1/2
ALLENTOWN      CLOUDY    78  69  73 SE6       29.82F
QUAKERTOWN*    PTCLDY    75  66  73 S8        29.84F
READING        LGT RAIN  78  65  63 S8        29.80R
LANCASTER      CLOUDY    72  66  81 CALM      29.81R THUNDER
COATESVILLE    PTCLDY    75  70  83 SE6       29.85R
POTTSTOWN      MOSUNNY   77  67  71 S5        29.84F
BLUE BELL      PTSUNNY   77  66  69 SE7       29.83F
DOYLESTOWN     PTSUNNY   74  65  73 S8G18     29.84S
WILLOW GROVE   NOT AVBL
NORTH PHILA    CLOUDY    76  66  71 CALM      29.85F
PHILADELPHIA   TSTM      78  67  68 SE13G18   29.84F
$$


USA.gov is the U.S. government's official web portal to all federal, state and local government web resources and services.